Time,TemperatureF,DewpointF,PressureIn,WindDirection,WindDirectionDegrees,WindSpeedMPH,WindSpeedGustMPH,Humidity,HourlyPrecipIn,Conditions,Clouds,dailyrainin,SoftwareType,DateUTC
2013-01-04 00:00:00,44.3,31.7,30.33,North,0,0.0,0.9,61,0.00,,,0.00,WUHU216HW,2013-01-04 06:00:00,
2013-01-04 00:05:00,44.3,31.7,30.33,North,0,0.2,0.9,61,0.00,,,0.00,WUHU216HW,2013-01-04 06:05:00,
2013-01-04 00:10:00,44.3,31.7,30.33,North,0,0.0,0.7,61,0.00,,,0.00,WUHU216HW,2013-01-04 06:10:00,
2013-01-04 00:15:00,44.3,31.7,30.33,North,0,0.2,0.7,61,0.00,,,0.00,WUHU216HW,2013-01-04 06:15:00,
2013-01-04 00:20:00,44.1,31.5,30.33,NNE,23,0.2,0.7,61,0.00,,,0.00,WUHU216HW,2013-01-04 06:20:00,
2013-01-04 00:25:00,44.1,31.5,30.32,NNE,23,0.7,0.7,61,0.00,,,0.00,WUHU216HW,2013-01-04 06:25:00,
2013-01-04 00:30:00,43.9,31.3,30.32,North,0,0.0,1.6,61,0.00,,,0.00,WUHU216HW,2013-01-04 06:30:00,
2013-01-04 00:35:00,43.9,31.3,30.33,North,0,0.0,1.6,61,0.00,,,0.00,WUHU216HW,2013-01-04 06:35:00,
2013-01-04 00:40:00,43.9,31.3,30.33,North,0,0.0,1.1,61,0.00,,,0.00,WUHU216HW,2013-01-04 06:40:00,
2013-01-04 00:45:00,43.7,31.1,30.33,North,0,0.0,0.4,61,0.00,,,0.00,WUHU216HW,2013-01-04 06:45:00,
2013-01-04 00:50:00,43.6,31.4,30.33,North,0,0.2,0.4,62,0.00,,,0.00,WUHU216HW,2013-01-04 06:50:00,
2013-01-04 00:55:00,43.4,31.2,30.34,NNW,338,0.0,0.4,62,0.00,,,0.00,WUHU216HW,2013-01-04 06:55:00,
2013-01-04 01:00:00,43.2,31.1,30.33,North,0,0.0,0.4,62,0.00,,,0.00,WUHU216HW,2013-01-04 07:00:00,
2013-01-04 01:05:00,43.2,31.1,30.33,NW,315,0.4,0.4,62,0.00,,,0.00,WUHU216HW,2013-01-04 07:05:00,
2013-01-04 01:10:00,43.2,31.1,30.33,WNW,293,0.2,0.9,62,0.00,,,0.00,WUHU216HW,2013-01-04 07:10:00,
2013-01-04 01:15:00,43.2,31.1,30.33,West,270,0.0,1.1,62,0.00,,,0.00,WUHU216HW,2013-01-04 07:15:00,
2013-01-04 01:20:00,43.2,31.4,30.33,North,0,0.2,1.1,63,0.00,,,0.00,WUHU216HW,2013-01-04 07:20:00,
2013-01-04 01:25:00,43.0,31.2,30.33,WNW,293,0.2,1.1,63,0.00,,,0.00,WUHU216HW,2013-01-04 07:25:00,
2013-01-04 01:30:00,43.0,31.2,30.33,NNE,23,0.4,1.3,63,0.00,,,0.00,WUHU216HW,2013-01-04 07:30:00,
2013-01-04 01:35:00,43.0,31.2,30.33,North,0,0.2,1.3,63,0.00,,,0.00,WUHU216HW,2013-01-04 07:35:00,
2013-01-04 01:40:00,42.8,31.1,30.33,WNW,293,0.0,1.3,63,0.00,,,0.00,WUHU216HW,2013-01-04 07:40:00,
2013-01-04 01:45:00,42.8,31.1,30.33,North,0,0.4,1.3,63,0.00,,,0.00,WUHU216HW,2013-01-04 07:45:00,
2013-01-04 01:50:00,42.8,31.1,30.32,North,0,1.8,1.8,63,0.00,,,0.00,WUHU216HW,2013-01-04 07:50:00,
2013-01-04 01:55:00,42.7,30.9,30.32,NW,315,0.0,1.8,63,0.00,,,0.00,WUHU216HW,2013-01-04 07:55:00,
2013-01-04 02:00:00,42.5,30.7,30.32,North,0,0.0,1.8,63,0.00,,,0.00,WUHU216HW,2013-01-04 08:00:00,
2013-01-04 02:05:00,42.5,30.7,30.32,NE,45,0.0,1.6,63,0.00,,,0.00,WUHU216HW,2013-01-04 08:05:00,
2013-01-04 02:10:00,42.3,30.6,30.31,NE,45,1.1,1.6,63,0.00,,,0.00,WUHU216HW,2013-01-04 08:10:00,
2013-01-04 02:15:00,42.1,30.4,30.32,NNE,23,0.0,2.9,63,0.00,,,0.00,WUHU216HW,2013-01-04 08:15:00,
2013-01-04 02:20:00,42.1,30.4,30.31,ENE,68,0.2,2.9,63,0.00,,,0.00,WUHU216HW,2013-01-04 08:20:00,
2013-01-04 02:25:00,42.1,30.4,30.31,NE,45,2.2,2.2,63,0.00,,,0.00,WUHU216HW,2013-01-04 08:25:00,
2013-01-04 02:30:00,41.9,30.3,30.32,North,0,1.1,2.5,63,0.00,,,0.00,WUHU216HW,2013-01-04 08:30:00,
2013-01-04 02:35:00,41.9,30.3,30.33,NNE,23,0.4,2.5,63,0.00,,,0.00,WUHU216HW,2013-01-04 08:35:00,
2013-01-04 02:40:00,41.9,30.3,30.33,North,0,0.0,2.5,63,0.00,,,0.00,WUHU216HW,2013-01-04 08:40:00,
2013-01-04 02:45:00,41.8,30.1,30.34,NNW,338,0.0,0.7,63,0.00,,,0.00,WUHU216HW,2013-01-04 08:45:00,
2013-01-04 02:50:00,41.8,30.1,30.34,NNW,338,0.0,0.7,63,0.00,,,0.00,WUHU216HW,2013-01-04 08:50:00,
2013-01-04 02:55:00,41.8,30.1,30.35,NW,315,0.0,0.4,63,0.00,,,0.00,WUHU216HW,2013-01-04 08:55:00,
2013-01-04 03:00:00,41.8,30.1,30.35,NW,315,0.0,0.2,63,0.00,,,0.00,WUHU216HW,2013-01-04 09:00:00,
2013-01-04 03:05:00,41.6,30.2,30.35,NW,315,0.0,0.2,64,0.00,,,0.00,WUHU216HW,2013-01-04 09:05:00,
2013-01-04 03:10:00,41.6,30.2,30.35,NNW,338,0.2,1.3,64,0.00,,,0.00,WUHU216HW,2013-01-04 09:10:00,
2013-01-04 03:15:00,41.6,30.2,30.35,NW,315,1.1,1.3,64,0.00,,,0.00,WUHU216HW,2013-01-04 09:15:00,
2013-01-04 03:20:00,41.4,30.2,30.35,NW,315,0.0,1.3,64,0.00,,,0.00,WUHU216HW,2013-01-04 09:20:00,
2013-01-04 03:25:00,41.4,30.2,30.35,NNW,338,0.0,1.1,64,0.00,,,0.00,WUHU216HW,2013-01-04 09:25:00,
2013-01-04 03:30:00,41.4,30.2,30.36,NNW,338,0.0,0.9,64,0.00,,,0.00,WUHU216HW,2013-01-04 09:30:00,
2013-01-04 03:35:00,41.4,30.5,30.36,NNW,338,0.0,0.4,65,0.00,,,0.00,WUHU216HW,2013-01-04 09:35:00,
2013-01-04 03:40:00,41.4,30.5,30.37,NNW,338,0.0,0.4,65,0.00,,,0.00,WUHU216HW,2013-01-04 09:40:00,
2013-01-04 03:45:00,41.4,30.5,30.37,NW,315,0.0,1.1,65,0.00,,,0.00,WUHU216HW,2013-01-04 09:45:00,
2013-01-04 03:50:00,41.4,30.5,30.37,NNE,23,0.0,1.1,65,0.00,,,0.00,WUHU216HW,2013-01-04 09:50:00,
2013-01-04 03:55:00,41.4,30.5,30.37,North,0,0.2,0.9,65,0.00,,,0.00,WUHU216HW,2013-01-04 09:55:00,
2013-01-04 04:00:00,41.4,30.5,30.37,North,0,0.0,0.4,65,0.00,,,0.00,WUHU216HW,2013-01-04 10:00:00,
2013-01-04 04:05:00,41.4,30.5,30.37,North,0,0.0,0.4,65,0.00,,,0.00,WUHU216HW,2013-01-04 10:05:00,
2013-01-04 04:10:00,41.4,30.5,30.36,NNE,23,0.0,1.1,65,0.00,,,0.00,WUHU216HW,2013-01-04 10:10:00,
2013-01-04 04:15:00,41.4,30.5,30.36,North,0,0.0,1.1,65,0.00,,,0.00,WUHU216HW,2013-01-04 10:15:00,
2013-01-04 04:20:00,41.4,30.9,30.36,NNE,23,0.0,1.3,66,0.00,,,0.00,WUHU216HW,2013-01-04 10:20:00,
2013-01-04 04:25:00,41.4,30.9,30.36,NNE,23,0.2,1.3,66,0.00,,,0.00,WUHU216HW,2013-01-04 10:25:00,
2013-01-04 04:30:00,41.4,30.9,30.36,NNE,23,0.4,1.1,66,0.00,,,0.00,WUHU216HW,2013-01-04 10:30:00,
2013-01-04 04:35:00,41.2,30.7,30.36,NNE,23,0.0,0.4,66,0.00,,,0.00,WUHU216HW,2013-01-04 10:35:00,
2013-01-04 04:40:00,41.2,30.7,30.36,NNE,23,0.2,1.8,66,0.00,,,0.00,WUHU216HW,2013-01-04 10:40:00,
2013-01-04 04:45:00,41.2,30.7,30.36,NW,315,0.2,1.8,66,0.00,,,0.00,WUHU216HW,2013-01-04 10:45:00,
2013-01-04 04:50:00,41.2,30.7,30.36,NNW,338,1.3,1.3,66,0.00,,,0.00,WUHU216HW,2013-01-04 10:50:00,
2013-01-04 04:55:00,41.2,30.7,30.37,NNW,338,0.0,1.3,66,0.00,,,0.00,WUHU216HW,2013-01-04 10:55:00,
2013-01-04 05:00:00,41.2,31.1,30.38,NNE,23,0.0,1.1,67,0.00,,,0.00,WUHU216HW,2013-01-04 11:00:00,
2013-01-04 05:05:00,41.0,30.9,30.38,WNW,293,0.0,1.1,67,0.00,,,0.00,WUHU216HW,2013-01-04 11:05:00,
2013-01-04 05:10:00,41.0,30.9,30.38,WNW,293,0.0,0.4,67,0.00,,,0.00,WUHU216HW,2013-01-04 11:10:00,
2013-01-04 05:15:00,41.0,30.9,30.38,WNW,293,0.0,0.0,67,0.00,,,0.00,WUHU216HW,2013-01-04 11:15:00,
2013-01-04 05:20:00,41.0,30.9,30.38,WNW,293,0.0,0.0,67,0.00,,,0.00,WUHU216HW,2013-01-04 11:20:00,
2013-01-04 05:25:00,41.0,30.9,30.38,WNW,293,0.0,0.0,67,0.00,,,0.00,WUHU216HW,2013-01-04 11:25:00,
2013-01-04 05:30:00,40.9,30.7,30.38,North,0,0.0,0.2,67,0.00,,,0.00,WUHU216HW,2013-01-04 11:30:00,
2013-01-04 05:35:00,41.0,30.9,30.38,North,0,0.0,0.2,67,0.00,,,0.00,WUHU216HW,2013-01-04 11:35:00,
2013-01-04 05:40:00,40.9,30.7,30.38,North,0,0.0,0.2,67,0.00,,,0.00,WUHU216HW,2013-01-04 11:40:00,
2013-01-04 05:45:00,40.9,30.7,30.38,North,0,0.0,0.0,67,0.00,,,0.00,WUHU216HW,2013-01-04 11:45:00,
2013-01-04 05:50:00,40.9,30.7,30.38,North,0,0.2,0.2,67,0.00,,,0.00,WUHU216HW,2013-01-04 11:50:00,
2013-01-04 05:55:00,40.9,30.7,30.38,NNE,23,0.0,0.4,67,0.00,,,0.00,WUHU216HW,2013-01-04 11:55:00,
2013-01-04 06:00:00,40.9,30.7,30.38,NNE,23,0.0,0.4,67,0.00,,,0.00,WUHU216HW,2013-01-04 12:00:00,
2013-01-04 06:05:00,40.9,30.7,30.38,NNE,23,0.0,0.4,67,0.00,,,0.00,WUHU216HW,2013-01-04 12:05:00,
2013-01-04 06:10:00,40.9,30.7,30.38,NNE,23,0.0,0.0,67,0.00,,,0.00,WUHU216HW,2013-01-04 12:10:00,
2013-01-04 06:15:00,40.9,30.7,30.38,NNE,23,0.0,0.0,67,0.00,,,0.00,WUHU216HW,2013-01-04 12:15:00,
2013-01-04 06:20:00,40.9,30.7,30.38,NNE,23,0.0,0.0,67,0.00,,,0.00,WUHU216HW,2013-01-04 12:20:00,
2013-01-04 06:25:00,40.9,30.7,30.38,NNE,23,0.0,0.0,67,0.00,,,0.00,WUHU216HW,2013-01-04 12:25:00,
2013-01-04 06:30:00,40.7,30.5,30.38,NNE,23,0.0,0.0,67,0.00,,,0.00,WUHU216HW,2013-01-04 12:30:00,
2013-01-04 06:35:00,40.9,30.7,30.38,NNE,23,0.0,0.2,67,0.00,,,0.00,WUHU216HW,2013-01-04 12:35:00,
2013-01-04 06:40:00,40.7,30.5,30.39,NNE,23,0.0,0.2,67,0.00,,,0.00,WUHU216HW,2013-01-04 12:40:00,
2013-01-04 06:45:00,40.9,31.2,30.40,NNE,23,0.0,0.0,68,0.00,,,0.00,WUHU216HW,2013-01-04 12:45:00,
2013-01-04 06:50:00,40.9,31.2,30.40,NNE,23,0.0,0.0,68,0.00,,,0.00,WUHU216HW,2013-01-04 12:50:00,
2013-01-04 06:55:00,40.9,31.2,30.40,NNE,23,0.0,0.0,68,0.00,,,0.00,WUHU216HW,2013-01-04 12:55:00,
2013-01-04 07:00:00,40.9,31.2,30.40,NNE,23,0.0,0.0,68,0.00,,,0.00,WUHU216HW,2013-01-04 13:00:00,
2013-01-04 07:05:00,40.9,31.2,30.40,NNE,23,0.0,0.4,68,0.00,,,0.00,WUHU216HW,2013-01-04 13:05:00,
2013-01-04 07:10:00,40.9,31.2,30.40,NNE,23,0.0,0.4,68,0.00,,,0.00,WUHU216HW,2013-01-04 13:10:00,
2013-01-04 07:15:00,40.9,31.2,30.39,NNE,23,0.0,0.4,68,0.00,,,0.00,WUHU216HW,2013-01-04 13:15:00,
2013-01-04 07:20:00,40.9,31.2,30.40,NNE,23,0.0,0.4,68,0.00,,,0.00,WUHU216HW,2013-01-04 13:20:00,
2013-01-04 07:25:00,40.9,31.2,30.39,NNE,23,0.2,0.2,68,0.00,,,0.00,WUHU216HW,2013-01-04 13:25:00,
2013-01-04 07:30:00,40.9,31.2,30.39,NNE,23,0.2,0.4,68,0.00,,,0.00,WUHU216HW,2013-01-04 13:30:00,
2013-01-04 07:35:00,41.0,31.3,30.38,NNE,23,0.4,0.4,68,0.00,,,0.00,WUHU216HW,2013-01-04 13:35:00,
2013-01-04 07:40:00,41.0,31.3,30.39,NNE,23,0.0,0.4,68,0.00,,,0.00,WUHU216HW,2013-01-04 13:40:00,
2013-01-04 07:45:00,41.0,31.3,30.39,NNE,23,0.0,0.4,68,0.00,,,0.00,WUHU216HW,2013-01-04 13:45:00,
2013-01-04 07:50:00,41.0,31.3,30.39,NNE,23,0.0,0.7,68,0.00,,,0.00,WUHU216HW,2013-01-04 13:50:00,
2013-01-04 07:55:00,41.0,31.3,30.38,NNE,23,0.4,0.7,68,0.00,,,0.00,WUHU216HW,2013-01-04 13:55:00,
2013-01-04 08:00:00,41.2,31.5,30.39,NNE,23,0.0,1.1,68,0.00,,,0.00,WUHU216HW,2013-01-04 14:00:00,
2013-01-04 08:05:00,41.2,31.9,30.39,NW,315,0.2,1.1,69,0.00,,,0.00,WUHU216HW,2013-01-04 14:05:00,
2013-01-04 08:10:00,41.4,31.7,30.39,NNW,338,0.4,0.4,68,0.00,,,0.00,WUHU216HW,2013-01-04 14:10:00,
2013-01-04 08:15:00,41.4,31.7,30.39,NNW,338,0.0,0.7,68,0.00,,,0.00,WUHU216HW,2013-01-04 14:15:00,
2013-01-04 08:20:00,41.4,31.7,30.40,North,0,0.4,1.3,68,0.00,,,0.00,WUHU216HW,2013-01-04 14:20:00,
2013-01-04 08:25:00,41.4,31.7,30.40,NW,315,0.0,1.3,68,0.00,,,0.00,WUHU216HW,2013-01-04 14:25:00,
2013-01-04 08:30:00,41.4,31.7,30.40,NW,315,0.0,0.9,68,0.00,,,0.00,WUHU216HW,2013-01-04 14:30:00,
2013-01-04 08:35:00,41.4,31.7,30.40,North,0,0.4,0.7,68,0.00,,,0.00,WUHU216HW,2013-01-04 14:35:00,
2013-01-04 08:40:00,41.6,31.8,30.40,NNE,23,0.0,1.1,68,0.00,,,0.00,WUHU216HW,2013-01-04 14:40:00,
2013-01-04 08:45:00,41.8,32.0,30.40,NE,45,0.0,1.3,68,0.00,,,0.00,WUHU216HW,2013-01-04 14:45:00,
2013-01-04 08:50:00,41.8,32.0,30.40,NE,45,0.4,1.3,68,0.00,,,0.00,WUHU216HW,2013-01-04 14:50:00,
2013-01-04 08:55:00,41.8,31.6,30.40,NNE,23,0.0,1.3,67,0.00,,,0.00,WUHU216HW,2013-01-04 14:55:00,
2013-01-04 09:00:00,41.9,31.8,30.40,NNE,23,0.0,1.1,67,0.00,,,0.00,WUHU216HW,2013-01-04 15:00:00,
2013-01-04 09:05:00,41.9,32.1,30.40,NNW,338,0.4,1.6,68,0.00,,,0.00,WUHU216HW,2013-01-04 15:05:00,
2013-01-04 09:10:00,42.1,32.3,30.41,NNE,23,0.7,1.6,68,0.00,,,0.00,WUHU216HW,2013-01-04 15:10:00,
2013-01-04 09:15:00,42.1,32.3,30.41,NNW,338,0.4,1.8,68,0.00,,,0.00,WUHU216HW,2013-01-04 15:15:00,
2013-01-04 09:20:00,42.1,32.3,30.41,NW,315,0.0,1.8,68,0.00,,,0.00,WUHU216HW,2013-01-04 15:20:00,
2013-01-04 09:25:00,42.1,32.3,30.41,NW,315,0.0,1.1,68,0.00,,,0.00,WUHU216HW,2013-01-04 15:25:00,
2013-01-04 09:30:00,42.3,32.5,30.41,NW,315,0.0,1.1,68,0.00,,,0.00,WUHU216HW,2013-01-04 15:30:00,
2013-01-04 09:35:00,42.5,32.7,30.42,WSW,248,0.4,0.9,68,0.00,,,0.00,WUHU216HW,2013-01-04 15:35:00,
2013-01-04 09:39:00,42.5,32.7,30.43,SW,225,0.9,0.9,68,0.00,,,0.00,WUHU216HW,2013-01-04 15:39:00,
2013-01-04 09:44:00,42.7,32.9,30.43,SSW,203,0.0,1.1,68,0.00,,,0.00,WUHU216HW,2013-01-04 15:44:00,
2013-01-04 09:49:00,42.7,32.9,30.43,SSW,203,0.0,1.1,68,0.00,,,0.00,WUHU216HW,2013-01-04 15:49:00,
2013-01-04 09:54:00,42.8,33.0,30.43,WSW,248,0.4,1.8,68,0.00,,,0.00,WUHU216HW,2013-01-04 15:54:00,
2013-01-04 09:59:00,42.8,32.7,30.43,NW,315,0.0,1.8,67,0.00,,,0.00,WUHU216HW,2013-01-04 15:59:00,
2013-01-04 10:04:00,42.8,32.7,30.42,West,270,0.9,0.9,67,0.00,,,0.00,WUHU216HW,2013-01-04 16:04:00,
2013-01-04 10:09:00,42.8,32.2,30.42,SW,225,0.2,1.1,66,0.00,,,0.00,WUHU216HW,2013-01-04 16:09:00,
2013-01-04 10:14:00,42.8,32.2,30.42,SW,225,0.0,1.1,66,0.00,,,0.00,WUHU216HW,2013-01-04 16:14:00,
2013-01-04 10:19:00,42.8,32.7,30.43,SSW,203,0.0,0.7,67,0.00,,,0.00,WUHU216HW,2013-01-04 16:19:00,
2013-01-04 10:24:00,43.0,32.4,30.43,East,90,0.0,0.7,66,0.00,,,0.00,WUHU216HW,2013-01-04 16:24:00,
2013-01-04 10:29:00,43.0,32.4,30.43,East,90,0.0,0.7,66,0.00,,,0.00,WUHU216HW,2013-01-04 16:29:00,
2013-01-04 10:34:00,43.2,32.6,30.43,SSE,158,0.0,0.9,66,0.00,,,0.00,WUHU216HW,2013-01-04 16:34:00,
2013-01-04 10:39:00,43.4,32.8,30.43,SE,135,0.4,0.9,66,0.00,,,0.00,WUHU216HW,2013-01-04 16:39:00,
2013-01-04 10:45:00,43.6,33.0,30.43,WSW,248,0.0,0.9,66,0.00,,,0.00,WUHU216HW,2013-01-04 16:45:00,
2013-01-04 10:49:00,43.6,33.0,30.43,WSW,248,0.0,0.9,66,0.00,,,0.00,WUHU216HW,2013-01-04 16:49:00,
2013-01-04 10:54:00,43.6,33.0,30.43,WSW,248,0.0,0.9,66,0.00,,,0.00,WUHU216HW,2013-01-04 16:54:00,
2013-01-04 10:59:00,43.7,32.8,30.42,WSW,248,0.7,0.7,65,0.00,,,0.00,WUHU216HW,2013-01-04 16:59:00,
2013-01-04 11:04:00,43.9,32.9,30.42,WNW,293,0.4,1.1,65,0.00,,,0.00,WUHU216HW,2013-01-04 17:04:00,
2013-01-04 11:09:00,43.9,32.9,30.42,West,270,0.0,1.1,65,0.00,,,0.00,WUHU216HW,2013-01-04 17:09:00,
2013-01-04 11:14:00,44.1,33.0,30.42,SSW,203,0.2,0.7,65,0.00,,,0.00,WUHU216HW,2013-01-04 17:14:00,
2013-01-04 11:19:00,44.1,33.0,30.41,SSW,203,0.0,0.7,65,0.00,,,0.00,WUHU216HW,2013-01-04 17:19:00,
2013-01-04 11:24:00,44.3,33.2,30.41,NNW,338,0.4,1.3,65,0.00,,,0.00,WUHU216HW,2013-01-04 17:24:00,
2013-01-04 11:29:00,44.5,33.0,30.41,NNW,338,1.1,1.8,64,0.00,,,0.00,WUHU216HW,2013-01-04 17:29:00,
2013-01-04 11:34:00,44.5,33.0,30.40,NW,315,0.2,1.8,64,0.00,,,0.00,WUHU216HW,2013-01-04 17:34:00,
2013-01-04 11:39:00,44.6,33.2,30.40,SW,225,0.7,2.2,64,0.00,,,0.00,WUHU216HW,2013-01-04 17:39:00,
2013-01-04 11:44:00,44.6,33.2,30.40,NNE,23,1.1,2.2,64,0.00,,,0.00,WUHU216HW,2013-01-04 17:44:00,
2013-01-04 11:49:00,44.8,33.4,30.39,NNW,338,0.2,1.8,64,0.00,,,0.00,WUHU216HW,2013-01-04 17:49:00,
2013-01-04 11:54:00,45.0,33.6,30.39,NNW,338,2.2,2.2,64,0.00,,,0.00,WUHU216HW,2013-01-04 17:54:00,
2013-01-04 11:59:00,45.2,33.3,30.39,NNW,338,1.3,2.2,63,0.00,,,0.00,WUHU216HW,2013-01-04 17:59:00,
2013-01-04 12:04:00,45.4,33.5,30.38,NE,45,1.1,2.5,63,0.00,,,0.00,WUHU216HW,2013-01-04 18:04:00,
2013-01-04 12:09:00,45.4,33.5,30.38,NW,315,0.4,2.5,63,0.00,,,0.00,WUHU216HW,2013-01-04 18:09:00,
2013-01-04 12:14:00,45.5,33.7,30.38,NW,315,0.0,2.7,63,0.00,,,0.00,WUHU216HW,2013-01-04 18:14:00,
2013-01-04 12:19:00,45.7,33.9,30.37,NW,315,1.6,2.7,63,0.00,,,0.00,WUHU216HW,2013-01-04 18:19:00,
2013-01-04 12:24:00,45.9,34.0,30.37,NNE,23,1.1,2.5,63,0.00,,,0.00,WUHU216HW,2013-01-04 18:24:00,
2013-01-04 12:29:00,46.1,33.8,30.36,NE,45,0.9,2.7,62,0.00,,,0.00,WUHU216HW,2013-01-04 18:29:00,
2013-01-04 12:34:00,46.4,34.1,30.36,North,0,0.0,2.7,62,0.00,,,0.00,WUHU216HW,2013-01-04 18:34:00,
2013-01-04 12:39:00,46.4,34.1,30.36,SW,225,1.3,1.6,62,0.00,,,0.00,WUHU216HW,2013-01-04 18:39:00,
2013-01-04 12:44:00,46.6,34.3,30.36,SW,225,0.4,1.6,62,0.00,,,0.00,WUHU216HW,2013-01-04 18:44:00,
2013-01-04 12:49:00,46.6,33.8,30.35,NNW,338,0.4,1.3,61,0.00,,,0.00,WUHU216HW,2013-01-04 18:49:00,
2013-01-04 12:54:00,46.6,33.8,30.35,SW,225,2.0,3.8,61,0.00,,,0.00,WUHU216HW,2013-01-04 18:54:00,
2013-01-04 12:59:00,46.6,33.8,30.35,SSE,158,0.0,3.8,61,0.00,,,0.00,WUHU216HW,2013-01-04 18:59:00,
2013-01-04 13:04:00,46.8,34.0,30.35,SSW,203,2.7,2.7,61,0.00,,,0.00,WUHU216HW,2013-01-04 19:04:00,
2013-01-04 13:09:00,47.0,34.2,30.34,North,0,0.4,2.7,61,0.00,,,0.00,WUHU216HW,2013-01-04 19:09:00,
2013-01-04 13:14:00,47.2,34.4,30.34,North,0,0.4,2.5,61,0.00,,,0.00,WUHU216HW,2013-01-04 19:14:00,
2013-01-04 13:19:00,47.2,34.4,30.34,South,180,0.7,1.1,61,0.00,,,0.00,WUHU216HW,2013-01-04 19:19:00,
2013-01-04 13:24:00,47.2,34.0,30.34,SE,135,0.2,2.9,60,0.00,,,0.00,WUHU216HW,2013-01-04 19:24:00,
2013-01-04 13:29:00,47.2,34.4,30.34,WSW,248,0.2,2.9,61,0.00,,,0.00,WUHU216HW,2013-01-04 19:29:00,
2013-01-04 13:34:00,47.3,34.6,30.33,SSE,158,1.3,5.1,61,0.00,,,0.00,WUHU216HW,2013-01-04 19:34:00,
2013-01-04 13:39:00,47.2,34.0,30.33,SSW,203,2.9,5.1,60,0.00,,,0.00,WUHU216HW,2013-01-04 19:39:00,
2013-01-04 13:44:00,47.2,34.0,30.33,SE,135,0.0,2.9,60,0.00,,,0.00,WUHU216HW,2013-01-04 19:44:00,
2013-01-04 13:49:00,47.3,34.2,30.33,WSW,248,0.4,2.9,60,0.00,,,0.00,WUHU216HW,2013-01-04 19:49:00,
2013-01-04 13:54:00,47.3,33.8,30.32,SW,225,3.6,3.6,59,0.00,,,0.00,WUHU216HW,2013-01-04 19:54:00,
2013-01-04 13:59:00,47.5,33.9,30.32,South,180,1.3,3.6,59,0.00,,,0.00,WUHU216HW,2013-01-04 19:59:00,
2013-01-04 14:04:00,47.5,33.5,30.32,WNW,293,0.7,4.0,58,0.00,,,0.00,WUHU216HW,2013-01-04 20:04:00,
2013-01-04 14:09:00,47.7,34.1,30.31,SSW,203,1.8,4.0,59,0.00,,,0.00,WUHU216HW,2013-01-04 20:09:00,
2013-01-04 14:14:00,47.9,33.9,30.31,WNW,293,0.4,2.7,58,0.00,,,0.00,WUHU216HW,2013-01-04 20:14:00,
2013-01-04 14:19:00,48.2,34.2,30.30,NW,315,0.0,2.5,58,0.00,,,0.00,WUHU216HW,2013-01-04 20:19:00,
2013-01-04 14:24:00,48.4,34.3,30.30,NNW,338,0.4,1.8,58,0.00,,,0.00,WUHU216HW,2013-01-04 20:24:00,
2013-01-04 14:29:00,48.4,33.8,30.30,SSW,203,1.6,4.5,57,0.00,,,0.00,WUHU216HW,2013-01-04 20:29:00,
2013-01-04 14:34:00,48.4,33.8,30.30,South,180,0.4,4.5,57,0.00,,,0.00,WUHU216HW,2013-01-04 20:34:00,
2013-01-04 14:39:00,48.6,34.5,30.30,SW,225,0.7,2.7,58,0.00,,,0.00,WUHU216HW,2013-01-04 20:39:00,
2013-01-04 14:44:00,48.8,34.7,30.30,SSW,203,0.2,2.2,58,0.00,,,0.00,WUHU216HW,2013-01-04 20:44:00,
2013-01-04 14:49:00,49.1,34.6,30.30,SE,135,0.4,2.0,57,0.00,,,0.00,WUHU216HW,2013-01-04 20:49:00,
2013-01-04 14:54:00,49.1,34.6,30.29,South,180,1.1,2.0,57,0.00,,,0.00,WUHU216HW,2013-01-04 20:54:00,
2013-01-04 14:59:00,49.3,34.8,30.30,East,90,0.0,1.6,57,0.00,,,0.00,WUHU216HW,2013-01-04 20:59:00,
2013-01-04 15:04:00,49.1,34.6,30.30,SSW,203,0.7,1.8,57,0.00,,,0.00,WUHU216HW,2013-01-04 21:04:00,
2013-01-04 15:09:00,49.1,34.6,30.30,SSE,158,0.4,1.8,57,0.00,,,0.00,WUHU216HW,2013-01-04 21:09:00,
2013-01-04 15:14:00,49.1,34.6,30.30,SSE,158,0.2,1.8,57,0.00,,,0.00,WUHU216HW,2013-01-04 21:14:00,
2013-01-04 15:19:00,49.1,34.1,30.29,SSW,203,1.1,4.3,56,0.00,,,0.00,WUHU216HW,2013-01-04 21:19:00,
2013-01-04 15:24:00,49.1,34.1,30.29,SSW,203,1.8,4.3,56,0.00,,,0.00,WUHU216HW,2013-01-04 21:24:00,
2013-01-04 15:29:00,49.1,34.1,30.29,SSE,158,0.4,2.9,56,0.00,,,0.00,WUHU216HW,2013-01-04 21:29:00,
2013-01-04 15:34:00,49.1,34.1,30.29,NE,45,0.7,2.5,56,0.00,,,0.00,WUHU216HW,2013-01-04 21:34:00,
2013-01-04 15:39:00,49.1,33.7,30.30,NE,45,0.9,2.5,55,0.00,,,0.00,WUHU216HW,2013-01-04 21:39:00,
2013-01-04 15:44:00,49.1,33.7,30.29,WNW,293,0.2,1.8,55,0.00,,,0.00,WUHU216HW,2013-01-04 21:44:00,
2013-01-04 15:49:00,49.3,33.8,30.29,NNW,338,0.7,1.8,55,0.00,,,0.00,WUHU216HW,2013-01-04 21:49:00,
2013-01-04 15:54:00,49.3,33.8,30.29,NNE,23,0.7,2.0,55,0.00,,,0.00,WUHU216HW,2013-01-04 21:54:00,
2013-01-04 15:59:00,49.3,33.8,30.29,NNE,23,0.2,2.0,55,0.00,,,0.00,WUHU216HW,2013-01-04 21:59:00,
2013-01-04 16:04:00,49.1,33.7,30.29,NW,315,0.0,0.9,55,0.00,,,0.00,WUHU216HW,2013-01-04 22:04:00,
2013-01-04 16:09:00,49.1,33.7,30.28,North,0,0.4,1.3,55,0.00,,,0.00,WUHU216HW,2013-01-04 22:09:00,
2013-01-04 16:14:00,49.1,33.7,30.28,NE,45,2.0,2.0,55,0.00,,,0.00,WUHU216HW,2013-01-04 22:14:00,
2013-01-04 16:19:00,49.1,33.7,30.29,NW,315,1.8,2.9,55,0.00,,,0.00,WUHU216HW,2013-01-04 22:19:00,
2013-01-04 16:24:00,49.1,33.7,30.29,NNE,23,0.0,3.1,55,0.00,,,0.00,WUHU216HW,2013-01-04 22:24:00,
2013-01-04 16:29:00,49.1,33.7,30.29,SSW,203,1.1,3.1,55,0.00,,,0.00,WUHU216HW,2013-01-04 22:29:00,
2013-01-04 16:34:00,49.0,33.5,30.28,NNE,23,0.7,1.6,55,0.00,,,0.00,WUHU216HW,2013-01-04 22:34:00,
2013-01-04 16:39:00,49.0,33.5,30.28,North,0,0.0,1.6,55,0.00,,,0.00,WUHU216HW,2013-01-04 22:39:00,
2013-01-04 16:44:00,48.8,33.3,30.28,NW,315,0.0,1.1,55,0.00,,,0.00,WUHU216HW,2013-01-04 22:44:00,
2013-01-04 16:49:00,48.8,33.3,30.28,NW,315,0.0,0.7,55,0.00,,,0.00,WUHU216HW,2013-01-04 22:49:00,
2013-01-04 16:54:00,48.6,33.6,30.28,NW,315,0.0,0.4,56,0.00,,,0.00,WUHU216HW,2013-01-04 22:54:00,
2013-01-04 16:59:00,48.6,33.6,30.28,WSW,248,0.2,0.4,56,0.00,,,0.00,WUHU216HW,2013-01-04 22:59:00,
2013-01-04 17:04:00,48.6,33.6,30.28,WSW,248,0.0,0.4,56,0.00,,,0.00,WUHU216HW,2013-01-04 23:04:00,
2013-01-04 17:09:00,48.4,33.4,30.28,North,0,0.0,0.9,56,0.00,,,0.00,WUHU216HW,2013-01-04 23:09:00,
2013-01-04 17:14:00,48.4,33.4,30.28,North,0,0.0,0.9,56,0.00,,,0.00,WUHU216HW,2013-01-04 23:14:00,
2013-01-04 17:19:00,48.4,33.4,30.28,NE,45,1.1,1.1,56,0.00,,,0.00,WUHU216HW,2013-01-04 23:19:00,
2013-01-04 17:24:00,48.4,33.4,30.28,North,0,0.9,1.6,56,0.00,,,0.00,WUHU216HW,2013-01-04 23:24:00,
2013-01-04 17:29:00,48.2,33.2,30.28,NNW,338,0.0,1.6,56,0.00,,,0.00,WUHU216HW,2013-01-04 23:29:00,
2013-01-04 17:34:00,48.2,33.2,30.28,NW,315,0.9,2.5,56,0.00,,,0.00,WUHU216HW,2013-01-04 23:34:00,
2013-01-04 17:39:00,48.1,33.0,30.28,NW,315,0.7,2.5,56,0.00,,,0.00,WUHU216HW,2013-01-04 23:39:00,
2013-01-04 17:44:00,48.1,33.0,30.28,NNE,23,0.9,2.2,56,0.00,,,0.00,WUHU216HW,2013-01-04 23:44:00,
2013-01-04 17:49:00,47.9,32.9,30.28,NNW,338,0.0,2.2,56,0.00,,,0.00,WUHU216HW,2013-01-04 23:49:00,
2013-01-04 17:54:00,47.9,33.4,30.29,NNW,338,0.4,0.9,57,0.00,,,0.00,WUHU216HW,2013-01-04 23:54:00,
2013-01-04 17:59:00,47.7,33.2,30.28,NNE,23,0.4,2.0,57,0.00,,,0.00,WUHU216HW,2013-01-04 23:59:00,
2013-01-04 18:04:00,47.7,33.2,30.28,NW,315,0.9,2.0,57,0.00,,,0.00,WUHU216HW,2013-01-05 00:04:00,
2013-01-04 18:09:00,47.5,33.0,30.29,NNE,23,0.7,1.3,57,0.00,,,0.00,WUHU216HW,2013-01-05 00:09:00,
2013-01-04 18:14:00,47.5,33.0,30.29,North,0,0.0,1.1,57,0.00,,,0.00,WUHU216HW,2013-01-05 00:14:00,
2013-01-04 18:19:00,47.5,33.0,30.28,NNE,23,1.1,1.6,57,0.00,,,0.00,WUHU216HW,2013-01-05 00:19:00,
2013-01-04 18:24:00,47.5,33.0,30.29,NNW,338,0.0,1.6,57,0.00,,,0.00,WUHU216HW,2013-01-05 00:24:00,
2013-01-04 18:29:00,47.5,33.0,30.29,NNW,338,0.2,1.1,57,0.00,,,0.00,WUHU216HW,2013-01-05 00:29:00,
2013-01-04 18:34:00,47.5,33.0,30.29,NNW,338,0.4,0.4,57,0.00,,,0.00,WUHU216HW,2013-01-05 00:34:00,
2013-01-04 18:39:00,47.3,32.9,30.28,NE,45,0.2,0.9,57,0.00,,,0.00,WUHU216HW,2013-01-05 00:39:00,
2013-01-04 18:44:00,47.3,32.9,30.28,NNE,23,1.1,1.6,57,0.00,,,0.00,WUHU216HW,2013-01-05 00:44:00,
2013-01-04 18:49:00,47.3,32.9,30.28,NNE,23,0.0,1.6,57,0.00,,,0.00,WUHU216HW,2013-01-05 00:49:00,
2013-01-04 18:54:00,47.3,32.9,30.28,NNE,23,0.2,1.8,57,0.00,,,0.00,WUHU216HW,2013-01-05 00:54:00,
2013-01-04 18:59:00,47.2,32.7,30.28,NE,45,0.0,1.8,57,0.00,,,0.00,WUHU216HW,2013-01-05 00:59:00,
2013-01-04 19:04:00,47.2,32.7,30.28,NNE,23,0.4,1.3,57,0.00,,,0.00,WUHU216HW,2013-01-05 01:04:00,
2013-01-04 19:09:00,47.2,32.7,30.28,North,0,0.7,1.6,57,0.00,,,0.00,WUHU216HW,2013-01-05 01:09:00,
2013-01-04 19:14:00,47.2,32.7,30.27,North,0,0.0,1.6,57,0.00,,,0.00,WUHU216HW,2013-01-05 01:14:00,
2013-01-04 19:19:00,47.2,32.7,30.27,North,0,0.4,0.7,57,0.00,,,0.00,WUHU216HW,2013-01-05 01:19:00,
2013-01-04 19:24:00,47.2,32.7,30.27,North,0,0.9,0.9,57,0.00,,,0.00,WUHU216HW,2013-01-05 01:24:00,
2013-01-04 19:29:00,47.2,33.1,30.28,North,0,0.4,0.9,58,0.00,,,0.00,WUHU216HW,2013-01-05 01:29:00,
2013-01-04 19:34:00,47.2,33.1,30.28,North,0,0.0,0.9,58,0.00,,,0.00,WUHU216HW,2013-01-05 01:34:00,
2013-01-04 19:39:00,47.2,33.1,30.29,North,0,0.0,0.9,58,0.00,,,0.00,WUHU216HW,2013-01-05 01:39:00,
2013-01-04 19:44:00,47.2,33.1,30.28,North,0,0.0,0.4,58,0.00,,,0.00,WUHU216HW,2013-01-05 01:44:00,
2013-01-04 19:49:00,47.2,33.1,30.28,North,0,0.0,0.2,58,0.00,,,0.00,WUHU216HW,2013-01-05 01:49:00,
2013-01-04 19:54:00,47.2,33.1,30.28,North,0,0.0,0.4,58,0.00,,,0.00,WUHU216HW,2013-01-05 01:54:00,
2013-01-04 19:59:00,47.2,33.1,30.29,North,0,0.0,0.4,58,0.00,,,0.00,WUHU216HW,2013-01-05 01:59:00,
2013-01-04 20:04:00,47.3,33.3,30.28,North,0,0.0,0.4,58,0.00,,,0.00,WUHU216HW,2013-01-05 02:04:00,
2013-01-04 20:09:00,47.3,32.9,30.28,NNW,338,0.0,0.4,57,0.00,,,0.00,WUHU216HW,2013-01-05 02:09:00,
2013-01-04 20:14:00,47.3,32.9,30.29,NNW,338,0.4,0.9,57,0.00,,,0.00,WUHU216HW,2013-01-05 02:14:00,
2013-01-04 20:19:00,47.3,32.9,30.28,NE,45,0.0,0.9,57,0.00,,,0.00,WUHU216HW,2013-01-05 02:19:00,
2013-01-04 20:24:00,47.3,32.9,30.28,NE,45,0.0,0.4,57,0.00,,,0.00,WUHU216HW,2013-01-05 02:24:00,
2013-01-04 20:29:00,47.3,32.9,30.28,NE,45,0.0,0.4,57,0.00,,,0.00,WUHU216HW,2013-01-05 02:29:00,
2013-01-04 20:34:00,47.3,32.4,30.28,South,180,0.0,0.4,56,0.00,,,0.00,WUHU216HW,2013-01-05 02:34:00,
2013-01-04 20:39:00,47.2,32.2,30.28,South,180,0.0,0.4,56,0.00,,,0.00,WUHU216HW,2013-01-05 02:39:00,
2013-01-04 20:44:00,47.3,32.4,30.28,NNW,338,0.0,1.1,56,0.00,,,0.00,WUHU216HW,2013-01-05 02:44:00,
2013-01-04 20:49:00,47.2,32.2,30.28,NE,45,0.2,1.1,56,0.00,,,0.00,WUHU216HW,2013-01-05 02:49:00,
2013-01-04 20:54:00,47.2,32.2,30.28,NE,45,0.0,1.1,56,0.00,,,0.00,WUHU216HW,2013-01-05 02:54:00,
2013-01-04 20:59:00,47.2,32.2,30.28,WSW,248,0.2,0.7,56,0.00,,,0.00,WUHU216HW,2013-01-05 02:59:00,
2013-01-04 21:04:00,47.2,32.2,30.27,ESE,113,0.2,0.7,56,0.00,,,0.00,WUHU216HW,2013-01-05 03:04:00,
2013-01-04 21:09:00,47.2,32.2,30.27,SSW,203,0.4,0.7,56,0.00,,,0.00,WUHU216HW,2013-01-05 03:09:00,
2013-01-04 21:14:00,47.2,32.2,30.27,SE,135,0.4,0.7,56,0.00,,,0.00,WUHU216HW,2013-01-05 03:14:00,
2013-01-04 21:19:00,47.2,32.2,30.27,West,270,0.0,1.3,56,0.00,,,0.00,WUHU216HW,2013-01-05 03:19:00,
2013-01-04 21:24:00,47.2,32.2,30.27,NW,315,0.0,1.3,56,0.00,,,0.00,WUHU216HW,2013-01-05 03:24:00,
2013-01-04 21:29:00,47.2,32.2,30.27,NW,315,0.0,0.4,56,0.00,,,0.00,WUHU216HW,2013-01-05 03:29:00,
2013-01-04 21:34:00,47.2,32.2,30.27,NW,315,0.2,0.4,56,0.00,,,0.00,WUHU216HW,2013-01-05 03:34:00,
2013-01-04 21:39:00,47.2,32.2,30.27,North,0,0.0,0.4,56,0.00,,,0.00,WUHU216HW,2013-01-05 03:39:00,
2013-01-04 21:44:00,47.2,32.2,30.27,WSW,248,0.2,0.7,56,0.00,,,0.00,WUHU216HW,2013-01-05 03:44:00,
2013-01-04 21:49:00,47.2,32.2,30.27,WSW,248,0.0,0.7,56,0.00,,,0.00,WUHU216HW,2013-01-05 03:49:00,
2013-01-04 21:54:00,47.2,32.2,30.27,WSW,248,0.4,0.4,56,0.00,,,0.00,WUHU216HW,2013-01-05 03:54:00,
2013-01-04 21:59:00,47.2,32.2,30.27,SW,225,0.0,0.4,56,0.00,,,0.00,WUHU216HW,2013-01-05 03:59:00,
2013-01-04 22:04:00,47.2,32.7,30.27,SW,225,0.4,0.4,57,0.00,,,0.00,WUHU216HW,2013-01-05 04:04:00,
2013-01-04 22:09:00,47.2,32.7,30.27,SSW,203,0.0,1.3,57,0.00,,,0.00,WUHU216HW,2013-01-05 04:09:00,
2013-01-04 22:14:00,47.2,32.7,30.27,SSW,203,0.0,1.3,57,0.00,,,0.00,WUHU216HW,2013-01-05 04:14:00,
2013-01-04 22:19:00,47.2,32.7,30.27,SSW,203,0.0,0.0,57,0.00,,,0.00,WUHU216HW,2013-01-05 04:19:00,
2013-01-04 22:24:00,47.2,32.7,30.27,SSW,203,0.2,0.2,57,0.00,,,0.00,WUHU216HW,2013-01-05 04:24:00,
2013-01-04 22:29:00,47.2,32.7,30.27,South,180,0.0,0.7,57,0.00,,,0.00,WUHU216HW,2013-01-05 04:29:00,
2013-01-04 22:34:00,47.2,32.7,30.27,South,180,0.4,0.7,57,0.00,,,0.00,WUHU216HW,2013-01-05 04:34:00,
2013-01-04 22:39:00,47.0,32.5,30.27,SSW,203,0.9,3.1,57,0.00,,,0.00,WUHU216HW,2013-01-05 04:39:00,
2013-01-04 22:44:00,47.0,32.1,30.27,SSE,158,1.1,3.4,56,0.00,,,0.00,WUHU216HW,2013-01-05 04:44:00,
2013-01-04 22:49:00,46.8,31.9,30.26,South,180,2.0,3.4,56,0.00,,,0.00,WUHU216HW,2013-01-05 04:49:00,
2013-01-04 22:54:00,46.8,31.9,30.26,SSW,203,0.4,3.4,56,0.00,,,0.00,WUHU216HW,2013-01-05 04:54:00,
2013-01-04 22:59:00,46.8,31.9,30.27,South,180,0.7,3.4,56,0.00,,,0.00,WUHU216HW,2013-01-05 04:59:00,
2013-01-04 23:00:00,46.8,31.9,30.27,South,180,0.4,3.4,56,0.00,,,0.00,WUHU216HW,2013-01-05 05:00:00,
2013-01-04 23:05:00,46.8,31.9,30.27,SSW,203,3.4,4.0,56,0.00,,,0.00,WUHU216HW,2013-01-05 05:05:00,
2013-01-04 23:10:00,46.8,31.9,30.27,South,180,2.5,4.0,56,0.00,,,0.00,WUHU216HW,2013-01-05 05:10:00,
2013-01-04 23:15:00,46.8,31.9,30.27,SSE,158,0.4,3.4,56,0.00,,,0.00,WUHU216HW,2013-01-05 05:15:00,
2013-01-04 23:20:00,46.6,32.1,30.27,South,180,0.9,2.5,57,0.00,,,0.00,WUHU216HW,2013-01-05 05:20:00,
2013-01-04 23:25:00,46.6,32.1,30.26,South,180,2.5,3.4,57,0.00,,,0.00,WUHU216HW,2013-01-05 05:25:00,
2013-01-04 23:30:00,46.4,32.0,30.27,WSW,248,2.7,5.6,57,0.00,,,0.00,WUHU216HW,2013-01-05 05:30:00,
2013-01-04 23:35:00,46.4,32.0,30.27,SSW,203,3.8,5.6,57,0.00,,,0.00,WUHU216HW,2013-01-05 05:35:00,
2013-01-04 23:40:00,46.4,32.4,30.27,South,180,1.1,4.7,58,0.00,,,0.00,WUHU216HW,2013-01-05 05:40:00,
2013-01-04 23:45:00,46.4,32.4,30.26,SSW,203,1.8,4.7,58,0.00,,,0.00,WUHU216HW,2013-01-05 05:45:00,
2013-01-04 23:50:00,46.4,32.9,30.27,SSE,158,3.6,5.8,59,0.00,,,0.00,WUHU216HW,2013-01-05 05:50:00,
2013-01-04 23:55:00,46.3,32.7,30.26,SW,225,4.0,5.8,59,0.00,,,0.00,WUHU216HW,2013-01-05 05:55:00,